Regional Weather Roundup
Issued by NWS Boston, MA

Home | Current Version | Previous Version | Text Only | Print | Product List | Glossary On
Versions: 1 2 3 4 5 6 7 8 9 10 11 12 13 14 15 16 17 18 19 20 21 22 23 24 25 26 27 28 29 30 31 32 33 34 35 36 37 38 39 40 41 42 43 44 45 46 47 48 49 50
000
ASUS41 KBOX 250210
RWRBOX

REGIONAL WEATHER ROUNDUP
NATIONAL WEATHER SERVICE TAUNTON MA
1000 PM EDT WED MAY 24 2017

NOTE:  "FAIR" INDICATES FEW OR NO CLOUDS BELOW 12,000 FEET WITH NO
SIGNIFICANT WEATHER AND/OR OBSTRUCTIONS TO VISIBILITY.

MAZALL-250300-
EASTERN MASSACHUSETTS

CITY           SKY/WX    TMP DP  RH WIND       PRES   REMARKS
BOSTON         CLOUDY    54  52  93 SE5       29.89R
BEVERLY        CLOUDY    52  49  89 CALM      29.89R
LAWRENCE       PTCLDY    57  50  77 CALM      29.90R
BEDFORD        MOCLDY    54  47  77 CALM      29.88R
BLUE HILL        N/A     53  48  83 E9        29.87R
NORWOOD        PTCLDY    55  50  83 NE3       29.88R
MARSHFIELD     CLOUDY    52  52 100 CALM      29.88R
PLYMOUTH       CLOUDY    52  50  93 NE5       29.87S
TAUNTON        CLOUDY    50  48  93 CALM      29.87R
NEW BEDFORD    PTCLDY    55  49  80 CALM      29.86S
$$

MAZALL-250300-
CAPE COD AND THE ISLANDS

CITY           SKY/WX    TMP DP  RH WIND       PRES   REMARKS
FALMOUTH         N/A    N/A N/A N/A MISG        N/A
HYANNIS        CLOUDY    54  50  86 N6        29.85R
CHATHAM        PTCLDY    54  51  90 NE6       29.86R
PROVINCETOWN   CLOUDY    50  49  96 E3        29.89R
NANTUCKET      PTCLDY    52  49  89 NE12      29.84R
MARTHAS VNYRD  PTCLDY    57  50  77 NE8       29.85S
$$

MAZALL-250300-
CENTRAL AND WESTERN MASSACHUSETTS

CITY           SKY/WX    TMP DP  RH WIND       PRES   REMARKS
WORCESTER      CLOUDY    57  47  69 E5        29.88R
FITCHBURG      CLOUDY    60  50  69 SE6       29.89R
ORANGE         PTCLDY    59  50  72 SE3       29.87R
SPRINGFIELD    MOCLDY    61  49  64 CALM      29.83R
WESTFIELD      CLOUDY    63  50  62 E3        29.83R
NORTH ADAMS    PTCLDY    61  49  64 E7        29.83R
PITTSFIELD     CLOUDY    59  47  64 SE8       29.82R
$$

RIZALL-250300-
RHODE ISLAND

CITY           SKY/WX    TMP DP  RH WIND       PRES   REMARKS
PROVIDENCE     CLOUDY    58  51  78 E7        29.87R
NEWPORT        CLOUDY    56  50  80 NE6       29.85R
BLOCK ISLAND   MOCLDY    56  51  84 NE9       29.84F
SMITHFIELD     CLOUDY    53  49  86 E6        29.88R
WESTERLY       MOCLDY    57  51  80 VRB5      29.85R
$$

CTZALL-250300-
CONNECTICUT

CITY           SKY/WX    TMP DP  RH WIND       PRES   REMARKS
BRADLEY INTL   CLOUDY    63  50  62 SE7       29.84R
HARTFORD       CLOUDY    61  53  75 S6        29.84R
BRIDGEPORT     CLOUDY    60  52  74 E6        29.84R
DANBURY        CLOUDY    56  49  77 SE6       29.84S
GROTON         CLOUDY    57  50  77 E6        29.84R
NEW HAVEN      CLOUDY    57  50  77 E7        29.84R
CHESTER        FAIR      55  50  82 CALM      29.85R
MERIDEN        MOCLDY    57  51  80 VRB5      29.84R
WILLIMANTIC    MOCLDY    62  50  64 E5        29.85R
OXFORD           N/A     55  45  67 SE8       29.85S
$$

MEZ002-015-021-024-NHZ003-005-008-011-012-014-VTZ005-008-250300-
NORTHERN NEW ENGLAND

CITY           SKY/WX    TMP DP  RH WIND       PRES   REMARKS
PORTLAND ME    CLEAR     54  51  90 S5        29.89R
BANGOR ME      PTCLDY    56  49  77 S6        29.86R
CONCORD NH     PTCLDY    61  51  70 SE7       29.87R
MANCHESTER NH  CLOUDY    60  48  64 SE6       29.86R
NASHUA NH      CLOUDY    59  50  72 S3        29.88R
PORTSMOUTH NH  MOCLDY    52  49  91 S5        29.87R
JAFFREY NH     CLOUDY    56  51  84 SE3       29.88R
KEENE NH       CLOUDY    60  51  72 CALM      29.86R
BURLINGTON VT  MOCLDY    67  55  65 E3        29.79R
MT. WASHINGTON PTCLDY    43  37  81 E7          N/A
$$

NYZ052-076-250300-
EASTERN NEW YORK

CITY           SKY/WX    TMP DP  RH WIND       PRES   REMARKS
ALBANY         CLOUDY    67  47  48 SE5       29.80R
NEW YORK CITY  CLOUDY    61  49  64 E14       29.81S
$$

ANZALL-250300-
MARINE OBSERVATIONS

STATION/POSITION TIME  TEMP    WIND        PRES    VSBY  WAVE
                       AIR SEA DIR/SP/G                  HT/PER
                 (UTC) (F)     (DEG/KT/KT) (MB)    (MI)  (FT/S)
BOSTON BUOY      0050   54 54  110/  4/  4 1010.6          2/ 7
BUZZARDS BAY     0100   57      40/ 11/ 12 1010.8R
NANTUCKET SOUND  0150      55              1010.5R         2/ 3
MASS BAY-STELLWA 0104   55 55  140/  4/  6 1010.4R         2/ 7
ISLE OF SHOALS   0100   55     150/  6/  6 1010.8R
S OF BLOCK IS    0155      53                N/A           5/ 9
$$

......................KEY.........................
  SKY/WX - SKY CONDITION/PRESENT WEATHER
  TMP    - TEMPERATURE IN FAHRENHEIT
  DWPT   - DEWPOINT IN FAHRENHEIT
  RH     - RELATIVE HUMIDITY IN PERCENT
  WIND   - DIRECTION AND SPEED IN MPH
  PRES   - MEAN SEA LEVEL PRESSURE IN INCHES OF HG
  WCI    - WIND CHILL INDEX
  VSB    - VISIBILITY IN MILES
  HX     - HEAT INDEX
  TC     - TEMPERATURE IN CELSIUS
  VRB    - VARIABLE WIND DIRECTION
  N/A    - NOT AVAILABLE



USA.gov is the U.S. government's official web portal to all federal, state and local government web resources and services.